Theta_e
318 319 319 320 317 320 319 316 315 315 314 315 310 316 315 314 314 316 317 325 327 327 325 326 327 326 326 325 325 324 324 323 323 323 321 324 324 326 325 325 325 327 327
317 318 319 319 315 320 316 314 312 310 311 308 309 314 315 314 314 314 315 318 324 324 323 326 328 326 326 324 324 323 324 324 323 324 323 323 323 323 324 324 325 326 327
317 316 317 317 314 317 315 312 310 310 307 308 308 313 313 313 312 312 311 311 313 321 325 325 325 324 324 324 324 323 324 324 323 322 323 322 322 321 320 321 322 322 325
316 315 315 314 311 314 311 310 310 309 307 308 306 309 312 313 311 308 308 308 310 313 320 323 323 323 323 323 322 321 320 320 319 319 318 319 319 319 318 319 319 321 322
312 312 311 310 310 310 309 311 309 311 307 307 308 306 307 307 307 307 304 305 310 309 309 318 318 318 318 318 318 317 316 316 315 315 315 315 315 316 316 317 318 319 319
310 310 309 308 310 309 308 310 310 310 309 309 309 307 305 305 304 302 303 305 306 307 306 305 306 309 312 311 312 312 312 312 312 313 313 314 314 315 315 316 317 317 317
310 308 308 308 309 309 309 310 308 309 307 308 304 303 302 303 302 301 302 302 303 303 303 303 303 301 301 307 307 307 308 310 311 311 312 313 314 314 314 314 314 313 313
309 308 308 308 308 308 307 307 308 306 306 308 303 300 297 299 301 300 300 301 300 301 300 299 297 296 295 297 299 304 306 308 310 310 310 311 311 312 313 312 312 311 311
310 309 308 308 307 307 307 307 308 308 307 304 307 301 296 294 297 299 299 300 299 298 297 296 296 295 294 295 296 298 302 304 307 308 309 309 309 310 310 310 310 310 309
309 309 309 308 307 306 304 306 309 308 309 305 303 302 300 300 295 294 298 298 298 299 296 295 294 294 294 295 297 300 300 302 303 305 307 307 308 308 308 307 308 308 307
309 309 309 307 307 307 306 306 306 308 310 306 304 299 300 300 300 297 294 295 296 296 296 294 293 293 293 292 291 296 298 300 302 303 304 306 305 305 305 305 306 306 306
309 309 309 308 307 307 306 306 307 308 308 306 305 300 300 299 298 298 296 296 293 292 293 293 293 293 291 292 296 297 297 299 299 301 302 303 303 302 303 303 304 304 304
309 308 308 307 306 307 306 306 306 305 306 304 302 300 300 299 298 297 300 295 290 289 292 292 292 292 291 290 292 295 296 296 298 299 301 301 300 300 300 301 302 302 302
309 310 308 307 305 305 306 306 305 304 303 301 299 296 294 293 294 296 297 293 287 287 288 290 290 290 289 289 294 295 289 295 296 297 298 299 298 298 299 300 300 300 300
309 307 305 304 303 303 303 303 302 299 298 296 293 292 291 291 291 292 293 296 290 285 285 287 289 288 289 288 293 288 287 295 295 296 297 296 296 297 298 298 298 298 298
309 305 303 303 302 301 300 300 297 296 294 292 292 291 291 291 290 290 291 290 290 287 284 286 285 286 287 289 292 287 288 293 294 295 295 295 296 296 296 297 297 297 298
308 305 303 301 300 298 297 296 294 293 292 291 290 290 289 289 289 288 288 287 289 287 285 285 287 285 285 285 287 287 288 287 287 294 295 295 295 295 295 296 296 296 297
307 304 302 301 299 298 297 295 293 291 290 289 289 289 288 290 288 288 288 289 287 287 286 283 284 285 284 285 285 284 287 289 286 292 294 294 295 295 296 296 296 296 296
304 302 300 298 296 296 294 294 291 290 290 289 289 288 288 288 288 288 288 287 288 288 287 285 284 285 284 284 284 284 286 285 288 292 293 293 294 295 295 296 295 295 294
303 301 299 298 296 293 291 290 290 289 289 289 289 289 289 288 288 287 288 287 287 286 286 285 284 284 284 285 284 283 283 284 285 288 290 291 293 294 294 295 294 293 293
302 300 297 295 292 291 290 289 289 289 288 288 288 289 289 291 293 291 289 288 287 286 286 285 284 284 284 283 282 283 282 283 284 285 285 285 286 287 287 291 291 292 293
298 296 294 292 291 291 295 295 291 289 288 288 288 289 291 293 293 294 293 291 289 286 285 284 283 282 282 282 283 282 282 281 280 285 283 285 285 285 286 286 291 292 292
295 294 293 291 290 290 296 295 294 289 288 288 288 287 287 289 290 289 290 290 290 290 289 285 284 283 282 283 283 283 282 282 281 284 283 282 283 282 284 287 290 291 291
294 292 291 291 291 292 296 295 292 289 288 288 288 287 287 287 288 287 287 286 286 287 288 288 286 285 285 285 285 285 284 283 282 283 283 278 280 279 281 283 288 290 291
292 291 291 291 291 292 295 293 290 288 287 287 288 288 287 286 289 290 287 285 285 286 289 292 290 290 290 290 289 283 280 279 278 280 281 279 279 278 280 280 283 289 290
291 290 290 291 293 291 293 292 290 288 286 286 287 287 289 287 291 290 286 284 283 283 284 284 284 285 285 285 287 283 280 278 279 278 280 278 278 279 277 279 280 283 282
Wind_Speed
8 7 6 6 5 4 5 5 4 4 4 4 6 10 9 9 8 6 4 12 12 13 13 12 14 13 16 15 14 14 14 13 13 13 12 12 11 11 10 11 11 12 12
10 8 8 8 5 5 5 5 5 4 4 5 8 10 9 8 9 8 4 6 14 11 11 12 14 14 14 14 14 14 13 12 12 13 11 11 14 13 13 13 15 16 17
12 11 9 9 7 6 7 5 5 4 5 5 9 9 8 9 7 8 6 4 5 9 10 12 12 12 13 13 13 12 14 14 14 13 14 14 14 12 13 13 13 14 17
14 12 9 9 8 7 6 5 5 4 6 7 5 7 8 7 7 7 6 4 4 4 9 14 14 13 13 13 12 12 13 12 12 12 12 13 13 12 12 12 12 14 15
13 11 10 8 8 8 6 7 3 7 6 5 7 5 5 6 6 6 6 6 6 5 4 12 14 14 14 13 12 12 11 11 11 11 11 11 11 11 12 12 13 14 15
11 10 8 8 7 7 6 6 7 5 5 7 8 7 5 5 5 5 6 5 5 6 5 5 4 6 13 13 12 12 11 11 11 11 11 11 11 11 11 12 14 14 14
9 9 7 8 8 9 8 10 5 9 3 7 6 6 5 4 6 5 5 4 5 5 5 5 4 3 5 13 13 12 11 10 11 11 11 11 12 12 12 14 14 13 14
9 9 10 9 8 8 9 7 7 4 3 5 6 5 3 3 3 2 4 4 5 4 5 6 6 5 4 4 7 12 12 12 11 11 11 11 12 13 13 13 13 14 14
9 10 11 10 9 8 9 9 9 8 10 1 14 6 4 4 4 1 3 4 6 4 4 5 6 6 5 5 6 7 11 11 11 11 11 11 11 12 13 13 13 13 14
7 9 10 10 11 7 9 8 8 9 13 11 2 2 2 6 5 3 2 3 5 6 6 4 5 5 6 4 6 7 8 8 10 10 11 11 11 12 13 13 13 14 15
9 10 11 10 10 9 10 11 9 11 11 8 8 3 2 2 3 4 4 4 2 2 4 5 5 4 5 5 3 4 7 6 8 10 11 11 11 12 12 13 13 14 14
8 9 10 10 10 9 11 10 10 12 11 7 6 4 4 4 4 4 4 5 5 2 2 4 5 4 4 4 5 4 6 6 5 8 10 10 10 12 13 13 13 13 14
9 11 12 10 9 10 9 8 9 8 11 8 7 5 3 3 4 3 4 4 4 2 2 1 3 4 4 3 2 4 4 6 7 8 11 9 9 11 12 13 14 14 13
8 10 11 10 7 7 8 8 6 6 6 6 7 5 4 3 3 4 5 8 4 2 1 4 1 3 3 3 4 5 3 7 6 9 8 9 9 11 12 14 13 13 13
4 5 8 9 7 7 8 8 6 6 6 5 6 6 5 2 3 3 4 9 7 5 3 4 3 2 3 3 4 3 2 5 9 8 7 8 9 10 12 12 13 12 13
12 11 7 8 9 7 7 8 6 7 10 6 6 8 5 3 5 4 4 4 3 4 4 2 1 3 2 3 3 2 3 6 8 8 9 9 9 11 12 13 13 12 13
12 12 15 10 10 11 9 8 7 9 12 9 6 9 7 5 4 5 5 4 4 3 5 1 2 1 1 2 2 2 2 3 3 9 10 11 11 11 11 11 12 14 15
11 13 12 14 12 12 13 13 12 9 11 11 8 10 8 6 7 5 4 5 4 4 4 3 1 1 1 2 1 2 3 3 2 5 10 12 12 12 13 14 15 17 16
12 11 13 15 13 12 11 12 12 12 11 10 10 10 9 9 6 5 5 5 4 3 3 3 1 1 0 0 1 2 2 3 3 6 8 11 12 13 16 15 18 19 18
14 14 12 10 12 14 13 12 12 13 13 12 11 10 9 8 8 7 6 6 5 4 3 4 1 1 1 1 1 2 2 2 3 3 7 6 10 12 18 18 18 17 18
12 13 13 11 12 12 11 15 15 13 11 10 8 8 7 9 11 8 5 5 6 3 3 3 2 1 0 0 1 1 2 2 3 3 2 3 3 5 5 10 13 17 18
10 11 13 13 10 7 21 23 18 14 14 13 11 9 9 12 11 13 12 10 6 5 4 3 2 1 1 1 1 1 1 2 4 1 2 6 2 6 5 5 14 20 20
13 12 11 16 15 10 23 26 25 13 13 11 10 9 8 7 8 7 9 7 5 6 5 5 3 3 3 3 2 2 2 2 3 4 2 4 2 4 5 7 18 23 21
14 14 14 13 12 13 22 22 25 15 12 12 10 8 8 8 6 6 5 4 3 2 2 3 4 4 3 4 4 3 2 2 2 3 1 4 2 3 4 7 20 17 14
11 12 13 16 17 17 28 27 20 15 13 11 8 7 6 6 8 9 5 4 3 1 3 6 6 4 2 6 7 2 2 2 2 3 2 1 2 4 6 5 6 14 16
14 13 15 15 20 16 27 26 18 11 12 8 7 6 8 8 13 11 6 6 4 2 3 3 3 3 5 6 11 6 3 2 2 3 2 4 3 3 3 3 3 6 5
Wind_Direction
156 152 148 150 138 143 144 151 163 171 152 143 126 121 110 103 96 85 59 60 86 88 90 90 103 94 91 86 82 75 77 71 60 63 50 46 37 36 44 35 27 16 9
156 158 156 160 149 161 157 157 171 183 155 140 106 119 119 109 103 97 77 64 74 89 105 98 100 97 88 88 85 78 71 71 68 62 55 40 33 32 29 27 21 20 16
161 160 163 169 167 170 162 161 168 141 121 105 112 121 117 117 112 109 101 75 65 56 82 93 88 88 93 84 84 75 62 55 52 48 44 34 29 23 17 15 16 15 12
161 162 167 173 167 168 158 152 154 128 119 119 114 121 127 123 121 117 107 102 81 52 63 78 76 76 72 76 68 61 54 49 46 42 34 30 21 14 10 8 4 17 8
157 159 165 164 159 154 150 155 124 135 126 111 112 101 104 116 118 121 122 118 112 97 79 91 83 76 73 71 69 65 61 54 49 43 38 30 20 12 7 4 360 18 3
153 147 148 150 143 139 134 135 137 115 128 127 111 92 89 97 111 118 119 125 121 115 106 86 80 86 82 73 65 58 54 47 42 35 31 26 18 12 8 12 9 12 5
142 143 142 142 144 145 148 142 125 128 106 125 101 82 53 77 105 116 114 112 117 123 117 122 96 70 69 73 59 50 44 41 41 36 31 26 20 15 11 11 9 3 1
144 148 149 152 151 143 143 143 135 115 107 152 128 102 101 36 45 119 122 130 131 118 109 104 102 99 93 82 61 46 37 33 33 34 31 23 21 13 10 9 4 359 1
158 155 158 157 155 155 162 160 152 144 157 166 152 134 139 188 131 127 172 154 145 127 121 119 116 113 102 88 67 42 39 27 25 22 22 20 19 13 7 4 1 358 356
148 152 161 159 162 160 159 164 156 151 156 160 132 153 157 144 162 148 200 172 150 154 150 140 126 122 120 114 87 61 38 22 23 17 11 12 16 12 4 358 355 355 356
157 162 166 163 166 170 169 162 159 161 170 162 172 147 126 111 119 138 156 156 103 155 154 143 146 136 124 126 100 43 24 16 18 12 3 5 12 5 358 354 355 354 352
172 166 176 176 171 172 174 172 163 165 172 161 165 156 160 163 167 148 118 158 144 168 151 142 142 141 129 133 128 70 22 358 353 357 356 357 5 1 356 351 350 351 351
183 173 176 179 178 175 171 162 162 160 171 166 162 172 157 183 142 127 109 137 126 135 158 149 167 149 139 133 157 114 20 3 351 348 342 350 359 357 350 347 345 346 344
189 179 173 174 164 157 163 164 161 161 152 150 151 142 136 147 150 150 141 145 110 126 169 166 131 147 147 133 135 82 1 2 349 337 338 344 346 347 343 340 338 338 335
113 150 152 145 143 140 142 145 146 130 122 122 122 126 121 102 82 97 106 151 137 147 182 211 139 167 131 105 85 66 12 341 335 333 334 341 341 338 333 330 333 331 324
162 152 149 146 133 120 122 125 117 119 122 118 128 122 108 106 94 82 100 105 100 129 139 156 137 146 157 104 93 60 347 356 336 334 333 332 335 331 333 331 327 325 321
166 167 150 148 144 134 131 122 123 134 132 128 124 126 113 112 101 89 83 83 84 84 106 78 98 99 100 94 348 343 323 283 311 326 332 335 328 331 325 329 325 323 326
165 164 165 157 156 154 151 146 148 143 138 138 129 127 127 122 103 101 95 92 97 70 117 125 104 119 142 214 226 266 273 301 295 319 332 338 327 320 330 321 328 327 326
160 162 160 156 153 154 152 151 146 141 136 135 137 136 135 130 122 122 113 108 104 84 80 104 151 223 287 92 342 301 284 280 300 315 325 328 324 331 327 325 327 325 323
164 163 163 161 159 152 145 141 140 140 140 146 147 147 144 138 135 130 124 127 119 118 111 103 163 195 163 286 157 229 316 319 313 302 300 311 324 329 324 315 319 315 312
172 165 149 150 149 151 151 148 146 145 136 125 114 118 122 125 126 134 137 139 120 132 123 133 168 170 111 83 268 273 255 280 275 244 317 330 318 305 298 304 307 308 301
148 154 152 146 152 167 159 149 142 137 135 135 129 118 113 107 116 123 119 111 131 152 147 152 158 156 217 258 318 305 324 349 322 331 23 304 310 307 300 298 295 304 305
152 154 159 153 158 157 158 144 134 130 126 125 125 123 116 115 115 98 117 131 149 175 159 142 155 196 194 204 199 251 238 234 248 284 359 297 316 292 299 302 306 301 305
160 153 156 148 145 147 147 136 125 119 116 118 122 118 124 127 130 134 137 164 169 153 171 173 177 206 212 243 222 220 236 258 290 285 200 268 312 296 298 295 300 311 321
154 159 154 150 151 150 144 138 129 121 123 110 112 125 136 116 160 168 131 146 147 238 261 227 186 225 287 341 328 88 26 46 311 296 358 306 294 279 280 272 289 316 316
155 151 150 156 152 145 142 138 133 118 122 133 139 110 138 163 175 177 158 157 170 165 87 36 11 39 29 60 74 75 85 90 312 299 260 350 288 319 298 278 302 305 288